| time (UTC) | temp F | wind direction | speed MPH | gust MPH | rain 1hr in | rain 24hr in | rain mn in | humidity % | barometer mb |
| 20260502224111 | 49 | 135 | 0.0 | 0.0 | 0.00 | 0.00 | 0.00 | 39 | 1019.2 |
| 20260502223111 | 49 | 45 | 0.0 | 1.0 | 0.00 | 0.00 | 0.00 | 38 | 1019.2 |
| 20260502222111 | 50 | 202 | 0.0 | 0.0 | 0.00 | 0.00 | 0.00 | 38 | 1018.9 |
| 20260502221111 | 50 | 202 | 0.0 | 0.0 | 0.00 | 0.00 | 0.00 | 38 | 1018.9 |
| 20260502220114 | 51 | 67 | 1.0 | 0.0 | 0.00 | 0.00 | 0.00 | 37 | 1018.4 |
| 20260502215114 | 51 | 90 | 1.0 | 2.0 | 0.00 | 0.00 | 0.00 | 37 | 1018.4 |
| 20260502214114 | 52 | 135 | 1.0 | 1.0 | 0.00 | 0.00 | 0.00 | 36 | 1018.8 |
| 20260502213114 | 52 | 67 | 0.0 | 1.0 | 0.00 | 0.00 | 0.00 | 36 | 1018.8 |
| 20260502212114 | 53 | 67 | 0.0 | 0.0 | 0.00 | 0.00 | 0.00 | 36 | 1018.4 |
| 20260502211114 | 53 | 180 | 0.0 | 0.0 | 0.00 | 0.00 | 0.00 | 35 | 1018.4 |
| 20260502210114 | 54 | 135 | 0.0 | 0.0 | 0.00 | 0.00 | 0.00 | 34 | 1018.8 |
| 20260502205114 | 54 | 67 | 0.0 | 2.0 | 0.00 | 0.00 | 0.00 | 34 | 1018.8 |
| 20260502204113 | 55 | 135 | 0.0 | 0.0 | 0.00 | 0.00 | 0.00 | 34 | 1018.2 |
| 20260502203113 | 55 | 112 | 0.0 | 0.0 | 0.00 | 0.00 | 0.00 | 33 | 1018.2 |
| 20260502202113 | 56 | 45 | 0.0 | 0.0 | 0.00 | 0.00 | 0.00 | 33 | 1018.5 |
| 20260502201113 | 56 | 202 | 0.0 | 0.0 | 0.00 | 0.00 | 0.00 | 32 | 1018.5 |
| 20260502200113 | 57 | 157 | 0.0 | 1.0 | 0.00 | 0.00 | 0.00 | 32 | 1018.2 |
| 20260502195114 | 58 | 45 | 1.0 | 2.0 | 0.00 | 0.00 | 0.00 | 31 | 1018.2 |
| 20260502191113 | 61 | 202 | 0.0 | 0.0 | 0.00 | 0.00 | 0.00 | 30 | 1017.9 |
| 20260502190114 | 62 | 180 | 1.0 | 1.0 | 0.00 | 0.00 | 0.00 | 29 | 1017.9 |
| 20260502185113 | 64 | 67 | 0.0 | 2.0 | 0.00 | 0.00 | 0.00 | 28 | 1017.9 |
| 20260502184112 | 65 | 202 | 0.0 | 0.0 | 0.00 | 0.00 | 0.00 | 27 | 1017.4 |
| 20260502183113 | 66 | 202 | 1.0 | 1.0 | 0.00 | 0.00 | 0.00 | 26 | 1017.4 |
| 20260502182113 | 68 | 135 | 0.0 | 1.0 | 0.00 | 0.00 | 0.00 | 25 | 1016.8 |
| 20260502181112 | 69 | 90 | 0.0 | 0.0 | 0.00 | 0.00 | 0.00 | 25 | 1016.8 |
| 20260502180112 | 70 | 315 | 2.0 | 0.0 | 0.00 | 0.00 | 0.00 | 25 | 1017.3 |
| 20260502170112 | 75 | 315 | 3.0 | 5.0 | 0.00 | 0.00 | 0.00 | 25 | 1017.4 |
| 20260502163112 | 76 | 337 | 3.0 | 5.0 | 0.00 | 0.00 | 0.00 | 25 | 1017.8 |
| 20260502162112 | 76 | 360 | 3.0 | 4.0 | 0.00 | 0.00 | 0.00 | 25 | 1017.9 |
| 20260502161112 | 76 | 337 | 3.0 | 5.0 | 0.00 | 0.00 | 0.00 | 25 | 1017.9 |
| 20260502160111 | 76 | 337 | 3.0 | 4.0 | 0.00 | 0.00 | 0.00 | 25 | 1017.9 |
| 20260502152112 | 76 | 135 | 1.0 | 2.0 | 0.00 | 0.00 | 0.00 | 25 | 1018.4 |
| 20260502151111 | 76 | 315 | 1.0 | 2.0 | 0.00 | 0.00 | 0.00 | 25 | 1018.4 |
| 20260502150111 | 76 | 247 | 1.0 | 4.0 | 0.00 | 0.00 | 0.00 | 25 | 1018.6 |
| 20260502140111 | 77 | 112 | 3.0 | 6.0 | 0.00 | 0.00 | 0.00 | 25 | 1019.2 |
| 20260502122115 | 75 | 202 | 2.0 | 1.0 | 0.00 | 0.00 | 0.00 | 25 | 1020.3 |
| 20260502121115 | 74 | 180 | 1.0 | 0.0 | 0.00 | 0.00 | 0.00 | 25 | 1020.3 |
| 20260502120115 | 74 | 135 | 2.0 | 1.0 | 0.00 | 0.00 | 0.00 | 26 | 1020.7 |
| 20260502115114 | 73 | 360 | 2.0 | 3.0 | 0.00 | 0.00 | 0.00 | 26 | 1020.7 |
| 20260502114114 | 73 | 247 | 2.0 | 3.0 | 0.00 | 0.00 | 0.00 | 27 | 1020.9 |
| 20260502113114 | 72 | 247 | 2.0 | 2.0 | 0.00 | 0.00 | 0.00 | 27 | 1020.9 |
| 20260502112114 | 71 | 247 | 2.0 | 2.0 | 0.00 | 0.00 | 0.00 | 28 | 1021.3 |
| 20260502111114 | 71 | 135 | 1.0 | 3.0 | 0.00 | 0.00 | 0.00 | 28 | 1021.3 |
| 20260502110116 | 69 | 90 | 1.0 | 1.0 | 0.00 | 0.00 | 0.00 | 33 | 1021.6 |
| 20260502105114 | 69 | 225 | 2.0 | 4.0 | 0.00 | 0.00 | 0.00 | 34 | 1021.6 |
| 20260502104114 | 68 | 225 | 1.0 | 2.0 | 0.00 | 0.00 | 0.00 | 35 | 1021.9 |
| 20260502103114 | 68 | 135 | 1.0 | 1.0 | 0.00 | 0.00 | 0.00 | 36 | 1021.9 |
| 20260502102114 | 67 | 202 | 2.0 | 3.0 | 0.00 | 0.00 | 0.00 | 37 | 1022.1 |
| 20260502101114 | 66 | 180 | 1.0 | 3.0 | 0.00 | 0.00 | 0.00 | 37 | 1022.1 |
| 20260502100114 | 65 | 112 | 1.0 | 0.0 | 0.00 | 0.00 | 0.00 | 37 | 1022.4 |
| 20260502091113 | 61 | 45 | 0.0 | 2.0 | 0.00 | 0.00 | 0.00 | 39 | 1022.9 |
| 20260502090113 | 60 | 225 | 2.0 | 2.0 | 0.00 | 0.00 | 0.00 | 40 | 1023.4 |
| 20260502071112 | 52 | 90 | 0.0 | 1.0 | 0.00 | 0.00 | 0.00 | 43 | 1024.6 |
| 20260502070113 | 51 | 180 | 0.0 | 0.0 | 0.00 | 0.00 | 0.00 | 43 | 1024.7 |
| 20260502065112 | 51 | 292 | 0.0 | 0.0 | 0.00 | 0.00 | 0.00 | 43 | 1024.7 |
| 20260502064112 | 51 | 360 | 0.0 | 1.0 | 0.00 | 0.00 | 0.00 | 45 | 1025.0 |
| 20260502063112 | 50 | 315 | 0.0 | 2.0 | 0.00 | 0.00 | 0.00 | 46 | 1025.0 |
| 20260502062112 | 48 | 360 | 0.0 | 0.0 | 0.00 | 0.00 | 0.00 | 48 | 1025.0 |
| 20260502061112 | 46 | 157 | 1.0 | 0.0 | 0.00 | 0.00 | 0.00 | 50 | 1025.0 |
| 20260502060111 | 45 | 67 | 0.0 | 1.0 | 0.00 | 0.00 | 0.00 | 50 | 1025.1 |
| 20260502055111 | 44 | 202 | 0.0 | 0.0 | 0.00 | 0.00 | 0.00 | 52 | 1025.1 |
| 20260502052111 | 38 | 180 | 0.0 | 0.0 | 0.00 | 0.00 | 0.00 | 54 | 1025.0 |
| 20260502051111 | 36 | 157 | 0.0 | 0.0 | 0.00 | 0.00 | 0.00 | 54 | 1025.0 |
| 20260502050111 | 36 | 67 | 0.0 | 0.0 | 0.00 | 0.00 | 0.00 | 54 | 1024.9 |
| 20260502045111 | 36 | 180 | 0.0 | 0.0 | 0.00 | 0.00 | 0.00 | 54 | 1024.9 |
| 20260502044112 | 36 | 135 | 0.0 | 0.0 | 0.00 | 0.00 | 0.00 | 52 | 1024.8 |
| 20260502043111 | 36 | 67 | 0.0 | 0.0 | 0.00 | 0.00 | 0.00 | 53 | 1024.8 |
| 20260502042111 | 37 | 90 | 0.0 | 0.0 | 0.00 | 0.00 | 0.00 | 53 | 1025.0 |
| 20260502041111 | 37 | 135 | 0.0 | 0.0 | 0.00 | 0.00 | 0.00 | 52 | 1025.0 |
| 20260502040112 | 36 | 157 | 0.0 | 0.0 | 0.00 | 0.00 | 0.00 | 52 | 1024.8 |